Home   Weather   Karlsruhe   Past weeks
Flag for Germany

Past Weather in Karlsruhe, Baden-Württemberg, Germany — Yesterday and Last 2 Weeks

Now
77 °F

Passing clouds.


Feels Like: 79 °F
Forecast: 74 / 64 °F
Wind: 5 mph from West

Location: Karlsruhe - Baden Wurttemberg

Current Time: Jun 19, 2019 at 11:06:33 am

Latest Report: Jun 19, 2019 at 10:20 am


Visibility: N/A

Pressure: 29.86 "Hg

Humidity: 65%

Dew Point: 64 °F

Location of KarlsruheLocation

Past Weather in Karlsruhe — Graph

°F

Karlsruhe Temperature Yesterday

Maximum temperature yesterday: 86 °F (at 6:50 pm)
Minimum temperature yesterday: 57 °F (at 5:50 am)
Average temperature yesterday: 73 °F

High & Low Weather Summary for the Past Weeks

 TemperatureHumidityPressure
High90 °F (Jun 4, 5:20 pm)100% (Jun 6, 10:50 pm)30.27 "Hg (Jun 6, 10:50 pm)
Low48 °F (Jun 6, 11:50 pm)32% (Jun 5, 2:20 pm)29.53 "Hg (Jun 5, 8:20 pm)
Average65 °F72%29.96 "Hg
* Reported Jun 4 9:20 am — Jun 19 9:50 am, Karlsruhe. Weather by CustomWeather, © 2019

Note: Actual official high and low records may vary slightly from our data, if they occured in-between our weather recording intervals... More about our weather records

Advertising

Karlsruhe Weather History for the Previous 24 Hours

Scroll right to see more
 ConditionsComfort  
Time TempWeatherWind HumidityBarometerVisibility
9:50 am
Wed, Jun 19
75 °FSunny.7 mph61%29.86 "Hg10 mi
9:20 am73 °FPassing clouds.6 mph69%29.86 "HgN/A
8:50 am72 °FSunny.6 mph69%29.86 "Hg10 mi
7:50 am72 °FSunny.No wind73%29.83 "Hg10 mi
7:20 am64 °FSunny.1 mph88%29.86 "Hg10 mi
6:50 am63 °FSunny.No wind94%29.86 "Hg10 mi
6:20 am61 °FSunny.5 mph94%29.86 "Hg10 mi
5:50 am61 °FSunny.3 mph94%29.86 "Hg10 mi
5:20 am63 °FClear.1 mph94%29.86 "Hg10 mi
4:50 am63 °FClear.No wind94%29.83 "Hg10 mi
4:20 am63 °FMild.No wind94%29.83 "Hg6 mi
3:50 am64 °FMild.2 mph94%29.86 "Hg6 mi
3:20 am66 °FPassing clouds.2 mph94%29.86 "HgN/A
2:50 am66 °FPassing clouds.1 mph94%29.86 "HgN/A
2:20 am66 °FPassing clouds.1 mph94%29.86 "HgN/A
1:50 am64 °FPassing clouds.No wind94%29.86 "HgN/A
1:20 am66 °FPassing clouds.1 mph88%29.86 "HgN/A
12:20 am68 °FPassing clouds.2 mph83%29.89 "HgN/A
11:50 pm
Tue, Jun 18
66 °FMild.No wind88%29.89 "HgN/A
11:20 pm72 °FMild.1 mph73%29.89 "HgN/A
10:50 pm73 °FClear.2 mph69%29.89 "Hg10 mi
10:20 pm75 °FClear.2 mph65%29.89 "Hg10 mi
9:50 pm75 °FClear.No wind65%29.89 "Hg6 mi
9:20 pm77 °FSunny.1 mph57%29.89 "Hg10 mi
8:50 pm81 °FSunny.3 mph51%29.89 "Hg10 mi
8:20 pm82 °FPassing clouds.5 mph48%29.89 "HgN/A
7:50 pm82 °FPassing clouds.6 mph48%29.89 "HgN/A
7:20 pm82 °FSunny.2 mph51%29.89 "Hg10 mi
6:50 pm86 °FSunny.2 mph40%29.89 "Hg10 mi
6:20 pm84 °FPassing clouds.3 mph43%29.89 "HgN/A
5:50 pm84 °FSunny.2 mph45%29.89 "Hg10 mi
5:20 pm82 °FSunny.2 mph51%29.89 "Hg10 mi
4:50 pm84 °FPassing clouds.5 mph43%29.92 "HgN/A
4:20 pm84 °FPassing clouds.3 mph40%29.92 "HgN/A
3:50 pm84 °FPassing clouds.6 mph40%29.92 "HgN/A
3:20 pm84 °FPassing clouds.5 mph37%29.92 "HgN/A
2:50 pm82 °FPassing clouds.5 mph45%29.92 "HgN/A
2:20 pm82 °FPassing clouds.5 mph45%29.92 "HgN/A
1:50 pm82 °FPassing clouds.3 mph48%29.95 "HgN/A
1:20 pm81 °FSunny.2 mph48%29.95 "Hg10 mi
12:50 pm81 °FSunny.2 mph54%29.95 "Hg10 mi
12:20 pm81 °FPassing clouds.3 mph58%29.95 "HgN/A
11:50 am77 °FPassing clouds.3 mph57%29.98 "HgN/A
11:20 am75 °FPassing clouds.3 mph65%29.98 "HgN/A
Weather by CustomWeather, © 2019

See weather overview